Location: Boiro
(42.6475°N, 8.8834°W)
Time: 01:38:32
(UTC+01:00)

Explorer 7 - Pass Details

Date: 06 December 2021
Orbit: 483 x 674 km, 50.3° (Epoch: 18 January)

Event Time Altitude Azimuth Distance (km) Brightness Sun altitude
Exits shadow 06:23:46 59° 95° (E) 671 7.4 -26.3°
Drops below altitude 10° 06:27:19 10° 63° (ENE) 1,839 10.2 -25.7°
Sets 06:29:30 0° 61° (ENE) 2,703 11.1 -25.3°
